Location: Oberkirch
(48.5323°N, 8.0787°E)
Time: 16:14:15
(UTC+00:00)

S-56A Canister/Altair - Pass Details

Date: 18 February 2026
Orbit: 633 x 2484 km, 38.9° (Epoch: 8 March)

Event Time Altitude Azimuth Distance (km) Brightness Sun altitude
Exits shadow 04:52:28 17° 244° (WSW) 3,409 10.3 -16.8°
Maximum altitude 04:57:13 24° 211° (SSW) 3,333 10.5 -16.0°
Drops below altitude 10° 05:06:35 10° 165° (SSE) 4,826 11.8 -14.5°
Sets 05:11:49 0° 154° (SSE) 6,017 12.5 -13.6°
